Regional Weather Roundup
Issued by NWS

Home | Current Version | Previous Version | Text Only | Print | Product List | Glossary Off
Versions: 1 2 3 4 5 6 7 8 9 10 11 12 13 14 15 16 17 18 19 20 21 22 23 24 25 26 27 28 29 30 31 32 33 34 35 36 37 38 39 40 41 42 43 44 45 46 47 48 49 50

000
ASUS43 KLOT 302010
RWRIL

ILLINOIS REGIONAL WEATHER ROUNDUP
NATIONAL WEATHER SERVICE CHICAGO/ROMEOVILLE IL
200 PM CST FRI JAN 30 2015

NOTE: "FAIR" INDICATES FEW OR NO CLOUDS BELOW 12,000 FEET WITH NO
SIGNIFICANT WEATHER AND/OR OBSTRUCTIONS TO VISIBILITY.

* THESE STATIONS ARE NOT UNDER NWS QUALITY CONTROL. THEY ALSO MAY NOT
  REPORT WEATHER SUCH AS PRECIPITATION OR FOG.

ILZ001-002-007-009-015-016-024-302100-
NORTHWEST ILLINOIS

CITY           SKY/WX    TMP DP  RH WIND       PRES   REMARKS
MOLINE         SUNNY     29  14  53 VRB5      30.48F WCI  24
STERLING*      SUNNY     28  12  50 CALM      30.50S
SAVANNA*       SUNNY     28  13  52 CALM      30.49F
$$

ILZ003-004-008-010-011-017-018-302100-
NORTH CENTRAL ILLINOIS

CITY           SKY/WX    TMP DP  RH WIND       PRES   REMARKS
ROCKFORD       MOSUNNY   27  10  49 CALM      30.49F
FREEPORT*      SUNNY     26  13  57 W6        30.48F WCI  19
ROCHELLE*      SUNNY     25  15  66 SW6       30.48F WCI  18
DE KALB*       MOSUNNY   24  11  58 CALM      30.46F
PERU*          SUNNY     29  15  57 CALM      30.49F
$$

ILZ005-006-012>014-019>023-302100-
NORTHEAST ILLINOIS

CITY           SKY/WX    TMP DP  RH WIND       PRES   REMARKS
CHICAGO-OHARE  PTSUNNY   28   8  43 NW5       30.47F WCI  23
CHICAGO-MIDWAY PTSUNNY   31   8  38 CALM      30.47F
AURORA         SUNNY     27  11  51 W5        30.47F WCI  22
LANSING*       SUNNY     30  13  50 CALM      30.47F
JOLIET*        SUNNY     29  10  45 CALM      30.48F
WAUKEGAN       SUNNY     27   8  44 VRB5      30.45F WCI  22
DUPAGE AIRPORT SUNNY     27   9  46 W5        30.46F WCI  22
KANKAKEE*      SUNNY     30  17  58 NW5       30.48F WCI  25
WHEELING       SUNNY     28   7  41 NW5       30.48F WCI  23
MORRIS*        SUNNY     29  16  60 NW3       30.47F
ROMEOVILLE*    SUNNY     29   9  43 CALM      30.47F
NORTHERLY ISL    N/A     25  15  66 NE6         N/A  WCI  18
$$

LMZ740>746-302100-
SOUTHERN LAKE MICHIGAN

STATION/POSITION SKY/WX   TEMP    WIND        PRES    VSBY  WAVE
                          AIR SEA DIR/SP/G                  HT/PER
                          (F)     (DEG/KT/KT) (MB)    (MI)  (FT/S)
WAUKEGAN HARBOR            24      70/  2/  6   N/A
HARRISON CRIB              24      10/  6/  8   N/A
BURNHAM HARBOR             25      70/  6/  9   N/A
CALUMET HARBOR             26      30/  8/ 11   N/A
MICHIGAN CITY              27     330/ 11/ 13   N/A
$$

ILZ025>027-034>036-040-047-049-050-058-095>099-302100-
WEST-CENTRAL ILLINOIS

CITY           SKY/WX    TMP DP  RH WIND       PRES   REMARKS
QUINCY         SUNNY     33  15  47 VRB5      30.48F WCI  29
GALESBURG*     SUNNY     30  20  64 CALM      30.47F
MACOMB*        SUNNY     32  20  60 W6        30.50F WCI  26
JACKSONVILLE*  SUNNY     36  19  49 SW7       30.49S WCI  30
PITTSFIELD*    SUNNY     35  19  51 CALM      30.49F
$$

ILZ028>032-037-038-041>044-048-051>054-059>061-302100-
CENTRAL ILLINOIS

CITY           SKY/WX    TMP DP  RH WIND       PRES   REMARKS
PONTIAC        MOSUNNY   31  19  62 W5        30.48F WCI  26
BLOOMINGTON    MOSUNNY   33  19  56 NW5       30.48F WCI  28
DECATUR        SUNNY     35  17  47 NE5       30.48F WCI  31
PEORIA         SUNNY     35  16  45 NW3       30.48F
LACON*         SUNNY     31  16  54 NW3       30.47F
LINCOLN*       SUNNY     35  20  55 CALM      30.49F
SPRINGFIELD    SUNNY     36  19  50 CALM      30.49F
TAYLORVILLE    SUNNY     32  21  64 N3        30.49F
$$

ILZ033-039-045-046-055>057-062-063-302100-
EAST-CENTRAL ILLINOIS

CITY           SKY/WX    TMP DP  RH WIND       PRES   REMARKS
CHAMPAIGN      SUNNY     33  16  49 VRB5      30.47F WCI  29
DANVILLE*      SUNNY     31  17  55 CALM      30.45S
RANTOUL*       SUNNY     33  16  51 N3        30.47F
MATTOON        SUNNY     33  18  53 NE3       30.46F
PARIS*         SUNNY     34  18  52 CALM      30.48S
$$

ILZ079-100>102-302100-
SOUTHWEST ILLINOIS

CITY           SKY/WX    TMP DP  RH WIND       PRES   REMARKS
ALTON          SUNNY     37  14  38 VRB6      30.49F WCI  33
BELLEVILLE     SUNNY     39  20  47 VRB3      30.49F
CAHOKIA*       SUNNY     39  19  44 N3        30.50F
SPARTA*        SUNNY     36  21  53 CALM      30.50F
$$

ILZ064>066-069>071-074>076-080>082-084>086-088>090-092>094-302100-
SOUTH-CENTRAL ILLINOIS

CITY           SKY/WX    TMP DP  RH WIND       PRES   REMARKS
CARBONDALE     SUNNY     39  20  46 N7        30.48F WCI  34
CAIRO*         SUNNY     44  22  41 NW7       30.48F
EFFINGHAM*     SUNNY     36  17  46 N5        30.50S WCI  32
MARION         SUNNY     41  21  45 N8        30.49F
MT. VERNON     SUNNY     39  21  48 E5        30.48F
CENTRALIA*     SUNNY     37  21  52 CALM      30.48S
SALEM*         SUNNY     38  20  47 N6        30.48F WCI  34
METROPOLIS*    SUNNY     42  23  45 N5        30.46F
$$

ILZ067-068-072-073-078-083-087-091-302100-
SOUTHEAST ILLINOIS

CITY           SKY/WX    TMP DP  RH WIND       PRES   REMARKS
LAWRENCEVILLE  SUNNY     38  21  50 NW7       30.48F WCI  33
FLORA*         SUNNY     36  20  52 CALM      30.49S
FAIRFIELD*     SUNNY     37  21  52 CALM      30.47F
HARRISBURG*    SUNNY     38  21  50 N5        30.49F WCI  35
ROBINSON*      SUNNY     35  18  49 N5        30.49S WCI  31
CARMI*         SUNNY     41  25  52 N7        30.47F
$$

ABBREVIATIONS USED IN REMARKS
   TC - TEMPERATURE IN CELSIUS
  WCI - WIND CHILL INDEX
   HX - HEAT INDEX
  VSB - VISIBILITY
$$



USA.gov is the U.S. government's official web portal to all federal, state and local government web resources and services.